星链-35004 (STARLINK-35004)

导读

STARLINK-35004是美国于2025年8月31日发射的星链卫星,属于SpaceX打造的星链星座组网卫星。星链系统旨在为全球提供高速低延迟卫星互联网服务,该卫星的发射进一步扩充了星链低轨星座规模,助力持续完善全球覆盖能力,推进SpaceX卫星互联网服务的部署进程。

Basic Information
目录编号:
65428
目录名称:
STARLINK-35004
国际标识:
2025-192AA
轨道中心:
EARTH
卫星名称:
星链-35004
卫星全名:
星链-35004 (STARLINK-35004)
卫星状态:
在轨 (已飞行286 天)
发射日期:
2025-08-31 UTC
国别 :
美国 (US)
星等 :
--
Orbit Information
数据来源 国际轨道数据 AOE轨道数据
星历时间 2026-06-13T14:18:52+0800
11小时前
查看轨道信息
2026-06-12T04:00:00+0800
1天前
查看轨道信息
半长轴 6853.356km 6853.351km
偏心率 0.000127 0.0001413
轨道倾角 53.158° 53.159°
近地点辐角 89.327° 75.850°
升交点赤经 148.646° 155.287°
平近点角 270.787° 323.723°
近地点 474.348km 474.245km
远地点 476.09km 476.183km
周期 94.105分钟 94.105分钟
每日圈数 15.301987 15.302006
Detailed Information
固有亮度:
5
最大亮度:
2.5
卫星平台:
Starlink V1.0
覆盖范围:
全球
运营商:
太空探索技术公司
运营商所在国:
美国
制造商(研发单位):
太空探索技术公司
制造商所在国:
美国
使用方式:
暂无
Satellite Introduction
Starlink 计划是 SpaceX 推出的全球卫星互联网项目,通过发射低轨道卫星,为全球尤其是偏远地区提供高速、低延迟的互联网服务。自 2019 年起,Starlink 已部署数千颗卫星,旨在缩小全球数字鸿沟,推动互联网普及。该项目还为军事、航空等行业提供通信支持,带来广泛经济效益。
2D Orbit Map
3D Orbit Map
Orbit Altitude Analysis Chart
Orbit Inclination Analysis Chart
Orbit Comprehensive Analysis Chart
View Comprehensive Chart